Regional Weather Roundup
Issued by NWS Albany, NY

Current Version | Previous Version | Text Only | Print | Product List | Glossary On
Versions: 1 2 3 4 5 6 7 8 9 10 11 12 13 14 15 16 17 18 19 20 21 22 23 24 25 26 27 28 29 30 31 32 33 34 35 36 37 38 39 40 41 42 43 44 45 46 47 48 49 50
000 ASUS41 KALY 082010 RWRALY NEW YORK STATE HOURLY WEATHER ROUNDUP NATIONAL WEATHER SERVICE ALBANY NY 300 PM EST THU DEC 08 2016 NOTE: "FAIR" INDICATES FEW OR NO CLOUDS BELOW 12,000 FEET WITH NO SIGNIFICANT WEATHER AND/OR NO OBSTRUCTIONS TO VISIBILITY. NYZ032-033-038>043-046>054-057>066-NYZ062>081-082-084-082100- EAST CITY SKY/WX TMP DP RH WIND PRES REMARKS ALBANY PTSUNNY 37 25 61 W16 29.84S WCI 28 GLENS FALLS CLOUDY 41 22 46 SW8 29.81R POUGHKEEPSIE SUNNY 42 20 41 W10G22 29.85R NEWBURGH MOSUNNY 41 23 48 NW14G23 29.86R MONTGOMERY MOSUNNY 43 21 41 NW10G20 29.85R NEW YORK CITY CLOUDY 44 23 43 W14 29.89R CENTRAL PARK N/A 45 21 39 MISG N/A $$ NYZ005>009-017-018-044>046-055-056-082100- CENTRAL CITY SKY/WX TMP DP RH WIND PRES REMARKS FULTON CLOUDY 34 26 72 W15G24 29.87R WCI 24 SYRACUSE CLOUDY 35 18 49 W20 29.87R WCI 24 ROME SUNNY 35 20 54 W20G30 29.86R WCI 24 ELMIRA CLOUDY 35 18 49 W10G25 29.90R WCI 27 BINGHAMTON CLOUDY 30 20 66 W12 29.84R WCI 20 MONTICELLO CLOUDY 34 21 60 NW14 29.85R WCI 24 $$ NYZ026>034-041>043-087-082100- NORTH CITY SKY/WX TMP DP RH WIND PRES REMARKS WATERTOWN NOT AVBL FORT DRUM NOT AVBL OGDENSBURG FAIR 36 25 63 W10G20 29.78R WCI 28 MASSENA MOCLDY 36 22 56 SW12G23 29.76S WCI 28 SARANAC LAKE CLOUDY 28 22 78 W10 29.70R WCI 19 PLATTSBURGH MIX PCPN 37 24 59 MISG 29.75S $$ NYZ001>004-010>016-019>021-085-082100- WEST CITY SKY/WX TMP DP RH WIND PRES REMARKS NIAGARA FALLS FLURRIES 30 20 66 W21G31 29.96R WCI 17 BUFFALO FLURRIES 30 20 66 NW18G28 29.95R WCI 18 DUNKIRK CLOUDY 31 22 69 W18G26 29.98R WCI 19 JAMESTOWN CLOUDY 25 18 74 SW17G23 29.93R WCI 11 ROCHESTER CLOUDY 34 16 47 W14G26 29.91R WCI 25 PENN YAN LGT SNOW 30 22 72 W15G25 29.91R WCI 19 $$ KEY WCI = WIND CHILL INDEX VSB = VISIBILITY HX = HEAT INDEX $$

USA.gov is the U.S. government's official web portal to all federal, state and local government web resources and services.